www.pogodaiklimat.ru

Погода и климат >> Архив погоды >> Италия >> Capo Frasca


ПОГОДА в Capo Frasca

  • Прогноз погоды в Capo Frasca
  • Монитор погоды в Capo Frasca
  • Климат города

АРХИВ ПОГОДЫ в Capo Frasca

Время (UTC), дата Ветер
(напр.,м/с)
 
Видим.   Явления Облачность Т
(С)
Тd
(С)
f
(%)
Тe
(С)
Тes
(С)
Комфортность P
(гПа)
Po
(гПа)
Тmin
(С)
Tmax
(С)
R
(мм)
R24
(мм)
S
(см)
06 11.10 В 6 25 км 5/3 450 м
[Cb calv Ci fib]
+17.2 +16.9 98 +16 +16 1014.4 1003.1 +16.8
09 11.10 В 7 25 км 4/1 600 м
[Cu Sc Ci fib]
+21.4 +20.9 97 +27 +28 душно 1015.2 1004.1
12 11.10 В 5 25 км 3/1 750 м
[Cu hum Ci fib]
+28.6 +27.7 95 +47 +51 опасность
перегрева
1015.0 1004.1
15 11.10 С 3 25 км 1/1 750 м
[Cu hum Ci fib]
+26.2 +24.3 89 +36 +38 очень
душно
1014.7 1003.8
18 11.10 СЗ 4 25 км 4/4 750 м
[Cu hum Ci fib]
+22.6 +22.6 100 +31 +31 очень
душно
1015.9 1004.9 +26.6
06 12.10 СВ 6 20 км 1/0
[Ci fib]
+18.0 +17.4 96 +18 +18 1020.4 1009.1 +17.0
09 12.10 СВ 5 20 км 3/1 120 м
[St Ci fib]
+21.6 +20.6 94 +27 +30 душно 1022.0 1010.8
12 12.10 С 4 25 км 4/1 600 м
[Cu med, cong Ci fib]
+26.2 +22.7 81 +35 +40 очень
душно
1021.8 1010.8
15 12.10 СЗ 6 25 км 4/1 600 м
[Cu med, cong Ci fib]
+23.6 +23.6 100 +32 +33 очень
душно
1021.2 1010.1
18 12.10 С 5 20 км 3/1 600 м
[Cu med, cong Ac trans Ci fib]
+22.8 +22.8 100 +31 +31 очень
душно
1021.2 1010.1 +26.4
06 13.10 С 3 20 км ясно +15.8 +15.3 97 +15 +15 1021.4 1010.0 +15.6
09 13.10 В 5 20 км ясно +20.8 +19.3 91 +25 +28 комфорт 1021.6 1010.4
12 13.10 СВ 3 20 км ясно +24.6 +20.1 76 +30 +38 очень
душно
1020.5 1009.5
15 13.10 С 6 20 км ясно +24.0 +21.7 87 +31 +32 очень
душно
1019.3 1008.3
18 13.10 С 3 20 км 3/3 1200 м
[Cb calv]
+21.0 +21.0 100 +27 +27 душно 1019.1 1008.0 +25.4
06 14.10 В 6 20 км 4/0
[Ac trans Ci fib]
+16.0 +15.4 96 +15 +15 1017.1 1005.8 +16.0
09 14.10 В 8 20 км ясно +21.6 +20.1 91 +27 +28 душно 1016.9 1005.8
12 14.10 ЮВ 7 20 км н/о +25.0 +19.6 72 +30 +30 душно 1015.7 1004.7
15 14.10 ЮВ 7 20 км 5/3 1200 м
[Cb calv Ac trans]
+24.0 +19.9 78 +29 +30 душно 1014.0 1003.0
18 14.10 В 5 20 км 3/0
[Ac trans Ci fib]
+21.0 +21.0 100 +26 +26 душно 1013.1 1002.0 +26.0
06 15.10 В 10 20 км 9/1 600 м
[Cu med, cong Ac trans Ci fib]
+17.8 +17.8 100 +17 +17 1011.4 1000.2 +17.8
09 15.10 ЮВ 11 20 км 8/1 750 м
[Cu med, cong Ac trans Ci fib]
+21.4 +19.9 91 +26 +26 душно 1012.3 1001.2
12 15.10 ЮВ 9 20 км 10/1 1200 м
[Cu med, cong Ac As Ci fib]
+23.4 +21.1 87 +31 +32 очень
душно
1011.4 1000.4
15 15.10 Ю 4 15 км слабый дождь 10/1 750 м
[Cu med, cong Ac As]
+21.4 +21.4 100 +27 +28 душно 1012.2 1001.1
18 15.10 ЮВ 3 15 км слабый дождь 10/3 600 м
[Cb cap Ac As]
+18.6 +18.6 100 +20 +20 1012.9 1001.7 +23.4 1
06 16.10 ЮВ 4 20 км слабая морось 9/9 600 м
[Cu Sc]
+17.4 +16.8 96 +17 +17 1013.3 1002.0 +16.6
09 16.10 В 3 20 км {морось} 8/4 600 м
[Cu med, cong Ac trans]
+19.6 +19.0 96 +23 +24 комфорт 1014.3 1003.1
12 16.10 ЮЗ 1 25 км 5/4 750 м
[Cu med, cong Ci fib]
+23.6 +21.3 87 +30 +36 очень
душно
1014.0 1003.0
15 16.10 СЗ 4 25 км 6/1 750 м
[Cu med, cong Ci fib]
+22.8 +20.7 88 +30 +31 очень
душно
1013.8 1002.8
18 16.10 С 2 20 км 9/4 450 м
[Cb cap Ac As]
+20.4 +20.4 100 +26 +26 душно 1014.5 1003.4 +24.0
06 17.10 ЮВ 3 25 км 6/1 600 м
[Cb calv Ac trans Ci ing]
+17.4 +16.9 97 +17 +17 1012.5 1001.3 +17.4
09 17.10 В 5 25 км 8/1 450 м
[Cu hum Ac trans Ci fib]
+20.8 +20.1 96 +26 +27 душно 1013.2 1002.1
12 17.10 ЮВ 6 25 км 10/5 600 м
[Cb calv Ac trans]
+22.2 +21.5 96 +29 +30 очень
душно
1012.0 1001.0
15 17.10 В 7 20 км слабый дождь 10/5 600 м
[Cu Sc Ac trans Ci fib]
+18.2 +17.6 96 +18 +18 1011.0 999.8
18 17.10 В 6 20 км {дождь} 10/3 600 м
[Cu Sc Ac As]
+17.8 +17.3 97 +17 +17 1010.5 999.3 +23.2 0.8

 

Местоположение метеостанции Capo Frasca (Италия): широта 39.75 долгота 8.47 высота над уровнем моря 89 м.

В архиве по умолчанию представлена погода в Capo Frasca за последнюю неделю. Архивные данные за месяц целиком и за предыдущие месяцы, начиная с января 2011 года, Вы можете получить, выбрав интересующий диапазон дат из раскрывающегося списка и нажав кнопку "Ввод!".


*Определитесь, кто Вы:
робот инопланетянин человек

Внимание! Время в таблицах - всемирное. Для получения местного времени необходимо прибавить поправку, которая в Capo Frasca равна 1 ч.

Смотрите также архив погоды в соседних городах и на ближайших метеорологических станциях:

Погода в Decimomannu (Италия) (62 км)
Погода в Capo Caccia (Италия) (95 км)
Погода в Alghero (Италия) (99 км)
Погода в Capo Bellavista (Италия) (109 км)
Погода в Capo Carbonara (Италия) (116 км)
Погода в Olbia (Италия) (156 км)
Погода в Cap Pertusato (Франция) (190 км)
Погода в Figari (Франция) (202 км)
Погода в La Parata (Франция) (242 км)
Погода в Ajaccio (Франция) (243 км)

Пояснения к столбцам:

Ветер - указаны скорость ветра в м/с - средняя за 10 мин, порывы в срок и между сроками (в фигурных скобках) и направление, откуда дует ветер: С - северный, СВ - северо-восточный, В - восточный, ЮВ - юго-восточный, Ю - южный, ЮЗ - юго-западный, З - западный, СЗ - северо-западный.
Видимость - горизонтальная дальность видимости в метрах или километрах. При видимости от 1 до 10 км при отсутствии осадков обычно наблюдается дымка, при ухудшении видимости до 1 км и менее - туман. В сухую погоду видимость может ухудшаться дымом, пылью или мглою.
Явления - указаны атмосферные явления, наблюдавшиеся в срок или в последний час перед сроком; фигурными скобками обозначены явления, наблюдавшиеся между сроками (за 1-3 часа до срока); квадратными скобками обозначены град или гололедные отложения с указанием их диаметра в мм.
Облачность - указаны через наклонную черту общая и нижняя облачность в баллах и высота нижней границы облаков в метрах; квадратными скобками обозначены формы облаков: Ci - перистые, Cs - перисто-слоистые, Cc - перисто-кучевые, Ac - высококучевые, As - высокослоистые, Sc - слоисто-кучевые, Ns - слоисто-дождевые, Cu - кучевые, Cb - кучево-дождевые. Подробнее классификацию облаков см. в Атласе облаков (PDF).
T - Температура воздуха - температура, измеренная на высоте 2 м над землей.
Td - Температура точки росы - температура, при понижении до которой содержащийся в воздухе водяной пар достигнет насыщения.
f - Относительная влажность воздуха - влажноcть воздуха, измеренная на высоте 2 м над землей.
Te - Эффективная температура - температура, которую ощущает одетый по сезону человек в тени. Характеристика душности погоды. При расчете учитывается влияние влажности воздуха и скорости ветра на теплоощущения человека.
Tes - Эффективная температура на солнце - температура, которую ощущает человек, с поправкой на солнечный нагрев. Характеристика знойности погоды. Зависит от высоты солнца над горизонтом, облачности и скорости ветра. Ночью, в пасмурную погоду, а также при ветре 12 м/с и более поправка равна нулю.
P - Атмосферное давление - приведенное к уровню моря атмосферное давление.
Po - Атмосферное давление - измеренное на уровне метеостанции атмосферное давление.
Tmin - Минимальная температура - минимум температуры воздуха на высоте 2 м над землей.
Tmax - Максимальная температура - максимум температуры воздуха на высоте 2 м над землей.
R - Количество осадков - Количество выпавших осадков за период времени, мм. При наведении курсора мыши на число - период времени, за который выпало указанное количество осадков.
R24 - Количество осадков - Количество выпавших осадков за 24 часа, мм.
S - Снежный покров - Высота снежного покрова, см. При наведении курсора мыши на число - состояние снежного покрова и степень покрытия местности в баллах.